Hourly Data Report for March 29, 2015

All times are specified in Local Standard Time (LST). Add 1 hour to adjust for Daylight Saving Time where and when it is observed.

Metadata including Station Name, Province, Latitude, Longitude, Elevation, Climate ID, WMO ID, TC ID
MONTREAL MIRABEL INTL A
QUEBEC
Latitude: 45°40'50.000" N Longitude: 74°02'19.000" W Elevation: 82.30 m
Climate ID: 7034900 WMO ID: TC ID: YMX
Hourly Data Report for March 29, 2015
Temp Definition
°C

Dew Point Temp Definition
°C

Rel Hum Definition
%

Wind Dir Definition
10's deg
Wind Spd Definition
km/h

Visibility Definition
km

Stn Press Definition
kPa

Hmdx Definition

Wind Chill Definition

Weather Definition

00:00 Legend Double Dagger -6.6 -19.0 37 27 9 40.2 101.02 -11 LegendNANA
01:00 Legend Double Dagger -7.2 -19.3 38 27 11 40.2 101.03 -12 Clear
02:00 Legend Double Dagger -8.5 -19.3 42 27 9 40.2 101.06 -13 LegendNANA
03:00 Legend Double Dagger -10.9 -17.4 59 26 9 40.2 101.06 -16 LegendNANA
04:00 Legend Double Dagger -10.7 -18.3 54 27 8 40.2 101.08 -15 Clear
05:00 Legend Double Dagger -12.0 -18.3 60 24 3 40.2 101.13 -14 LegendNANA
06:00 Legend Double Dagger -11.2 -18.4 56 24 7 72.4 101.17 -15 LegendNANA
07:00 Legend Double Dagger -8.7 -18.1 47 25 4 72.4 101.24 -11 Clear
08:00 Legend Double Dagger -7.3 -17.9 43 22 12 72.4 101.26 -13 LegendNANA
09:00 Legend Double Dagger -5.4 -16.4 42 21 13 72.4 101.26 -11 LegendNANA
10:00 Legend Double Dagger -3.4 -15.2 40 21 16 72.4 101.24 -9 Mainly Clear
11:00 Legend Double Dagger -1.7 -14.3 38 23 17 72.4 101.19 -7 LegendNANA
12:00 Legend Double Dagger -0.5 -12.5 40 21 22 72.4 101.09 -6 LegendNANA
13:00 Legend Double Dagger 0.5 -11.3 41 22 14 72.4 100.96 Mostly Cloudy
14:00 Legend Double Dagger 2.3 -13.2 31 22 23 72.4 100.85 LegendNANA
15:00 Legend Double Dagger 2.5 -13.4 30 23 14 72.4 100.80 LegendNANA
16:00 Legend Double Dagger 1.9 -12.4 34 21 18 72.4 100.70 Mostly Cloudy
17:00 Legend Double Dagger 2.1 -11.5 36 23 17 72.4 100.64 LegendNANA
18:00 Legend Double Dagger 0.9 -10.0 44 21 15 72.4 100.56 LegendNANA
19:00 Legend Double Dagger 0.2 -10.4 45 21 16 40.2 100.49 Mostly Cloudy
20:00 Legend Double Dagger -0.1 -11.3 43 23 12 40.2 100.48 -4 LegendNANA
21:00 Legend Double Dagger -0.7 -11.5 44 23 7 40.2 100.37 -3 LegendNANA
22:00 Legend Double Dagger -1.4 -10.8 49 20 6 40.2 100.27 -4 Mostly Cloudy
23:00 Legend Double Dagger -1.6 -11.3 48 16 8 40.2 100.14 -5 LegendNANA

Notes on Data Quality.

Legend
  • E = Estimated
  • M = Missing
  • NA = Not Available
  • ‡ = Partner data that is not subject to review by the National Climate Archives